contact:dominique.lefevre@mio.osupytheas.fr, maurice.libes@osupytheas.fr, didier.mallarino@osupytheas.fr
Project:EMSO http://www.emso-fr.org/EMSO-France
Depth: 2436.0 m
Title:EMSO Ligure Ouest : Data MII capteur AQUADOPP
Date,Latitude,Longitude,X_East,Y_North,Z_Up,Amplitude_X,Amplitude_Y,Amplitude_Z,Batterie,SoundSpeed,Heading,Pitch,Roll,Pressure,TIS,Speed,Direction
, degrees North, degrees East, m.s-1, m.s-1,m.s-1, 1, 1, 1, Volt, m.s-1, degree, degree, degree, dbar, degree_C, m.s-1, degree
2024-01-02T00:04:03,42.805,6.029,0.03,-0.034,0.002,103.0,104.0,101.0,13.4,1505.2,3.1,-0.8,1.8,2471.622,13.28,0.045,138.6
2024-01-02T00:07:03,42.805,6.029,0.044,-0.025,0.004,104.0,103.0,102.0,13.4,1505.2,342.7,-0.7,1.8,2471.64,13.28,0.05,119.6
2024-01-02T00:10:03,42.805,6.029,0.035,-0.035,-0.031,103.0,104.0,101.0,13.3,1505.2,354.1,-0.8,1.8,2471.611,13.28,0.049,135.0
2024-01-02T00:13:03,42.805,6.029,0.045,-0.049,-0.013,105.0,103.0,102.0,13.3,1505.2,4.6,-0.8,1.8,2471.605,13.29,0.066,137.4
2024-01-02T00:16:03,42.805,6.029,0.052,-0.033,-0.001,103.0,103.0,101.0,13.3,1505.2,341.8,-0.8,1.8,2471.561,13.29,0.061,122.4
2024-01-02T00:19:03,42.805,6.029,0.048,-0.057,0.004,103.0,104.0,102.0,13.4,1505.2,347.3,-0.7,1.8,2471.585,13.29,0.074,139.9
2024-01-02T00:22:03,42.805,6.029,0.028,-0.051,-0.012,104.0,103.0,101.0,13.3,1505.2,2.4,-0.8,1.8,2471.565,13.29,0.058,151.2
2024-01-02T00:25:03,42.805,6.029,0.044,-0.035,-0.01,104.0,103.0,102.0,13.4,1505.2,343.3,-0.8,1.8,2471.578,13.29,0.056,128.5
2024-01-02T00:28:03,42.805,6.029,0.015,-0.048,-0.024,105.0,103.0,102.0,13.4,1505.2,357.5,-0.7,1.8,2471.588,13.29,0.05,162.6
2024-01-02T00:31:03,42.805,6.029,0.046,-0.021,-0.032,103.0,103.0,101.0,13.4,1505.2,347.4,-0.8,1.8,2471.566,13.29,0.05,114.5
2024-01-02T00:34:03,42.805,6.029,0.046,-0.038,-0.014,103.0,104.0,101.0,13.4,1505.2,1.4,-0.8,1.8,2471.58,13.29,0.059,129.6
2024-01-02T00:37:03,42.805,6.029,0.039,-0.053,-0.037,105.0,102.0,102.0,13.4,1505.2,354.0,-0.8,1.8,2471.559,13.29,0.065,143.7
2024-01-02T00:40:03,42.805,6.029,0.038,-0.023,-0.004,103.0,103.0,102.0,13.4,1505.2,355.6,-0.7,1.8,2471.565,13.29,0.044,121.2
2024-01-02T00:43:03,42.805,6.029,0.052,-0.031,0.003,104.0,104.0,101.0,13.3,1505.2,344.9,-0.7,1.8,2471.607,13.29,0.06,120.8
2024-01-02T00:46:03,42.805,6.029,0.046,-0.031,-0.054,104.0,103.0,102.0,13.4,1505.2,347.9,-0.8,1.8,2471.542,13.29,0.055,124.0
2024-01-02T00:49:03,42.805,6.029,0.048,-0.026,-0.015,104.0,102.0,101.0,13.4,1505.2,357.0,-0.8,1.8,2471.562,13.29,0.054,118.4
2024-01-02T00:52:03,42.805,6.029,0.048,-0.013,-0.015,103.0,103.0,102.0,13.4,1505.2,351.7,-0.7,1.8,2471.607,13.29,0.049,105.2
2024-01-02T00:55:03,42.805,6.029,0.022,-0.054,-0.035,103.0,105.0,102.0,13.4,1505.2,350.4,-0.8,1.8,2471.553,13.29,0.058,157.8
2024-01-02T00:58:03,42.805,6.029,0.045,-0.034,-0.001,103.0,102.0,103.0,13.4,1505.2,357.0,-0.8,1.8,2471.58,13.29,0.056,127.1
2024-01-02T01:04:03,42.805,6.029,0.059,-0.073,-0.028,103.0,104.0,103.0,13.3,1505.2,1.5,-0.8,1.8,2471.587,13.28,0.093,141.1
2024-01-02T01:07:03,42.805,6.029,0.049,-0.025,-0.013,104.0,101.0,102.0,13.4,1505.2,350.8,-0.8,1.8,2471.568,13.28,0.055,117.0
2024-01-02T01:10:03,42.805,6.029,0.049,-0.043,-0.023,103.0,102.0,103.0,13.4,1505.2,348.3,-0.7,1.8,2471.611,13.28,0.065,131.3
2024-01-02T01:13:03,42.805,6.029,0.041,-0.057,-0.024,102.0,103.0,103.0,13.4,1505.2,3.7,-0.8,1.8,2471.558,13.29,0.07,144.3
2024-01-02T01:16:03,42.805,6.029,0.046,-0.032,-0.036,103.0,103.0,102.0,13.3,1505.2,359.2,-0.8,1.8,2471.594,13.29,0.056,124.8
2024-01-02T01:19:03,42.805,6.029,0.031,-0.055,-0.01,104.0,102.0,101.0,13.4,1505.2,0.0,-0.8,1.8,2471.565,13.29,0.063,150.6
2024-01-02T01:22:03,42.805,6.029,0.068,-0.044,-0.032,105.0,102.0,102.0,13.4,1505.2,342.6,-0.8,1.8,2471.519,13.29,0.08,122.9
2024-01-02T01:25:03,42.805,6.029,0.071,-0.049,-0.038,104.0,103.0,101.0,13.4,1505.2,358.4,-0.7,1.8,2471.585,13.29,0.086,124.6
2024-01-02T01:28:03,42.805,6.029,0.033,-0.055,0.004,103.0,103.0,102.0,13.3,1505.2,352.9,-0.8,1.8,2471.54,13.29,0.064,149.0
2024-01-02T01:31:03,42.805,6.029,0.044,-0.088,-0.044,103.0,103.0,102.0,13.3,1505.2,355.5,-0.7,1.8,2471.572,13.29,0.098,153.4
2024-01-02T01:34:03,42.805,6.029,0.044,-0.044,0.01,103.0,103.0,101.0,13.3,1505.2,4.7,-0.7,1.8,2471.554,13.29,0.062,135.0
2024-01-02T01:37:03,42.805,6.029,0.054,-0.031,-0.002,104.0,103.0,101.0,13.3,1505.2,344.0,-0.8,1.8,2471.564,13.29,0.062,119.9
2024-01-02T01:40:03,42.805,6.029,0.068,-0.022,0.013,104.0,104.0,101.0,13.3,1505.2,345.9,-0.7,1.8,2471.524,13.29,0.071,107.9
2024-01-02T01:43:03,42.805,6.029,0.046,-0.011,-0.036,103.0,103.0,102.0,13.4,1505.2,344.2,-0.8,1.8,2471.54,13.29,0.047,103.4
2024-01-02T01:46:03,42.805,6.029,0.036,-0.018,-0.021,105.0,103.0,103.0,13.3,1505.2,347.2,-0.8,1.8,2471.545,13.29,0.04,116.6
2024-01-02T01:49:03,42.805,6.029,0.048,-0.034,-0.028,104.0,102.0,102.0,13.4,1505.2,350.9,-0.8,1.8,2471.547,13.29,0.058,125.3
2024-01-02T01:52:03,42.805,6.029,0.026,-0.038,-0.029,104.0,104.0,102.0,13.3,1505.2,354.6,-0.8,1.8,2471.559,13.29,0.046,145.6
2024-01-02T01:55:03,42.805,6.029,0.044,-0.05,0.03,103.0,103.0,102.0,13.4,1505.2,357.5,-0.8,1.8,2471.55,13.29,0.066,138.7
2024-01-02T01:58:03,42.805,6.029,0.046,-0.025,-0.03,104.0,104.0,102.0,13.4,1505.2,349.5,-0.8,1.8,2471.57,13.29,0.052,118.5
2024-01-02T02:04:03,42.805,6.029,0.035,-0.03,-0.015,106.0,105.0,102.0,13.4,1505.2,5.3,-0.7,1.8,2471.603,13.28,0.046,130.6
2024-01-02T02:07:03,42.805,6.029,0.033,-0.028,-0.032,105.0,105.0,102.0,13.4,1505.2,344.3,-0.7,1.8,2471.6,13.28,0.043,130.3
2024-01-02T02:10:03,42.805,6.029,0.056,-0.052,0.004,105.0,103.0,102.0,13.4,1505.2,347.1,-0.8,1.8,2471.576,13.28,0.076,132.9
2024-01-02T02:13:03,42.805,6.029,0.073,-0.048,-0.005,105.0,104.0,102.0,13.4,1505.2,355.6,-0.8,1.8,2471.571,13.29,0.087,123.3
2024-01-02T02:16:03,42.805,6.029,0.065,-0.038,0.0,105.0,104.0,102.0,13.4,1505.2,346.5,-0.8,1.8,2471.56,13.29,0.075,120.3
2024-01-02T02:19:04,42.805,6.029,0.052,-0.049,-0.014,105.0,104.0,103.0,13.3,1505.2,352.2,-0.8,1.8,2471.552,13.29,0.071,133.3
2024-01-02T02:22:03,42.805,6.029,0.047,-0.053,-0.016,105.0,104.0,102.0,13.4,1505.2,358.4,-0.8,1.8,2471.537,13.29,0.07,138.4
2024-01-02T02:25:03,42.805,6.029,0.045,-0.048,-0.006,105.0,104.0,102.0,13.4,1505.2,358.5,-0.8,1.9,2471.545,13.29,0.065,136.9
2024-01-02T02:28:03,42.805,6.029,0.064,-0.043,0.001,103.0,103.0,102.0,13.4,1505.2,339.9,-0.8,1.8,2471.515,13.29,0.077,123.9
2024-01-02T02:31:03,42.805,6.029,0.071,-0.054,0.004,104.0,103.0,103.0,13.4,1505.2,353.1,-0.8,1.8,2471.561,13.29,0.089,127.3
2024-01-02T02:34:03,42.805,6.029,0.035,-0.06,0.005,105.0,105.0,102.0,13.4,1505.2,0.0,-0.8,1.8,2471.535,13.29,0.069,149.7
2024-01-02T02:37:03,42.805,6.029,0.033,-0.051,-0.015,105.0,104.0,101.0,13.3,1505.2,355.1,-0.8,1.8,2471.574,13.29,0.06,147.1
2024-01-02T02:40:03,42.805,6.029,0.027,-0.069,-0.036,104.0,103.0,102.0,13.4,1505.2,0.0,-0.8,1.8,2471.518,13.29,0.074,158.6
2024-01-02T02:43:03,42.805,6.029,0.058,-0.059,0.008,104.0,103.0,102.0,13.4,1505.2,345.9,-0.8,1.8,2471.565,13.29,0.082,135.5
2024-01-02T02:46:03,42.805,6.029,0.053,-0.038,0.003,104.0,104.0,102.0,13.4,1505.2,356.8,-0.7,1.8,2471.539,13.29,0.065,125.6
2024-01-02T02:49:03,42.805,6.029,0.057,-0.051,0.01,104.0,103.0,102.0,13.4,1505.2,353.4,-0.8,1.8,2471.537,13.29,0.076,131.8
2024-01-02T02:52:03,42.805,6.029,0.059,-0.054,0.003,105.0,104.0,103.0,13.4,1505.2,353.8,-0.7,1.8,2471.535,13.29,0.079,132.5
2024-01-02T02:55:03,42.805,6.029,0.057,-0.06,-0.033,105.0,105.0,102.0,13.4,1505.2,356.8,-0.8,1.8,2471.55,13.29,0.082,136.5
2024-01-02T02:58:03,42.805,6.029,0.059,-0.055,-0.005,105.0,104.0,102.0,13.4,1505.2,346.7,-0.7,1.8,2471.524,13.29,0.08,133.0
2024-01-02T03:04:03,42.805,6.029,0.035,-0.056,0.019,106.0,105.0,102.0,13.3,1505.2,347.9,-0.8,1.9,2471.573,13.28,0.066,148.0
2024-01-02T03:07:03,42.805,6.029,0.033,-0.068,0.004,104.0,104.0,103.0,13.4,1505.2,354.1,-0.8,1.8,2471.528,13.28,0.075,154.1
2024-01-02T03:10:03,42.805,6.029,0.06,-0.05,0.015,105.0,105.0,102.0,13.3,1505.2,349.3,-0.8,1.8,2471.568,13.28,0.078,129.8
2024-01-02T03:13:03,42.805,6.029,0.049,-0.043,-0.017,105.0,105.0,103.0,13.4,1505.2,347.0,-0.7,1.8,2471.55,13.29,0.065,131.3
2024-01-02T03:16:03,42.805,6.029,0.039,-0.051,-0.026,104.0,105.0,104.0,13.3,1505.2,358.4,-0.8,1.8,2471.518,13.29,0.064,142.6
2024-01-02T03:19:03,42.805,6.029,0.047,-0.063,0.017,105.0,106.0,102.0,13.4,1505.2,344.9,-0.8,1.8,2471.522,13.29,0.078,143.3
2024-01-02T03:22:03,42.805,6.029,0.048,-0.048,-0.014,105.0,105.0,103.0,13.4,1505.2,357.5,-0.8,1.8,2471.484,13.29,0.067,135.0
2024-01-02T03:25:03,42.805,6.029,0.028,-0.023,-0.028,106.0,103.0,101.0,13.4,1505.2,355.6,-0.8,1.8,2471.551,13.29,0.036,129.4
2024-01-02T03:28:03,42.805,6.029,0.033,-0.061,0.007,105.0,104.0,103.0,13.4,1505.2,356.6,-0.7,1.8,2471.544,13.29,0.069,151.6
2024-01-02T03:31:03,42.805,6.029,0.025,-0.05,-0.027,105.0,105.0,102.0,13.4,1505.2,1.6,-0.7,1.8,2471.558,13.29,0.055,153.4
2024-01-02T03:34:03,42.805,6.029,0.05,-0.048,-0.023,105.0,106.0,102.0,13.4,1505.2,354.8,-0.8,1.8,2471.532,13.29,0.069,133.8
2024-01-02T03:37:03,42.805,6.029,0.021,-0.061,-0.044,106.0,104.0,104.0,13.4,1505.2,2.4,-0.8,1.8,2471.492,13.29,0.064,161.0
2024-01-02T03:40:03,42.805,6.029,0.027,-0.064,-0.022,105.0,104.0,103.0,13.4,1505.2,357.5,-0.8,1.8,2471.493,13.29,0.069,157.1
2024-01-02T03:43:03,42.805,6.029,0.024,-0.07,-0.038,105.0,104.0,103.0,13.3,1505.2,2.4,-0.7,1.8,2471.479,13.29,0.073,161.1
2024-01-02T03:46:03,42.805,6.029,0.042,-0.035,0.008,106.0,105.0,102.0,13.3,1505.2,342.0,-0.8,1.8,2471.502,13.29,0.054,129.8
2024-01-02T03:49:03,42.805,6.029,0.04,-0.048,0.029,105.0,105.0,103.0,13.4,1505.2,354.1,-0.8,1.8,2471.495,13.29,0.062,140.2
2024-01-02T03:52:03,42.805,6.029,0.046,-0.053,-0.007,106.0,105.0,103.0,13.3,1505.2,352.0,-0.8,1.8,2471.515,13.29,0.07,139.0
2024-01-02T03:55:03,42.805,6.029,0.045,-0.047,-0.007,103.0,106.0,103.0,13.3,1505.2,350.4,-0.7,1.8,2471.467,13.29,0.065,136.2
2024-01-02T03:58:03,42.805,6.029,0.045,-0.075,-0.017,107.0,105.0,103.0,13.4,1505.2,353.5,-0.8,1.8,2471.515,13.29,0.087,149.0
2024-01-02T04:04:03,42.805,6.029,0.04,-0.029,0.001,105.0,104.0,103.0,13.3,1505.2,352.7,-0.8,1.8,2471.543,13.28,0.049,125.9
2024-01-02T04:07:03,42.805,6.029,0.065,-0.062,-0.003,105.0,105.0,103.0,13.4,1505.2,348.2,-0.8,1.8,2471.552,13.28,0.089,133.6
2024-01-02T04:10:03,42.805,6.029,0.045,-0.063,-0.003,105.0,103.0,103.0,13.4,1505.2,354.4,-0.8,1.8,2471.51,13.28,0.077,144.5
2024-01-02T04:13:03,42.805,6.029,0.025,-0.052,0.012,104.0,104.0,103.0,13.3,1505.2,357.6,-0.8,1.8,2471.494,13.29,0.057,154.3
2024-01-02T04:16:03,42.805,6.029,0.02,-0.045,0.002,104.0,104.0,103.0,13.4,1505.2,2.3,-0.7,1.8,2471.523,13.29,0.049,156.0
2024-01-02T04:19:03,42.805,6.029,0.044,-0.067,-0.013,105.0,104.0,102.0,13.4,1505.2,0.7,-0.8,1.9,2471.496,13.29,0.08,146.7
2024-01-02T04:22:03,42.805,6.029,0.03,-0.035,0.016,105.0,104.0,102.0,13.4,1505.2,355.9,-0.8,1.8,2471.498,13.29,0.046,139.4
2024-01-02T04:25:03,42.805,6.029,0.043,-0.078,-0.006,104.0,104.0,103.0,13.3,1505.2,354.9,-0.7,1.8,2471.515,13.29,0.089,151.1
2024-01-02T04:28:03,42.805,6.029,0.056,-0.037,0.011,105.0,104.0,102.0,13.4,1505.2,341.3,-0.8,1.8,2471.494,13.29,0.067,123.5
2024-01-02T04:31:03,42.805,6.029,0.051,-0.054,0.017,104.0,103.0,104.0,13.3,1505.2,348.9,-0.8,1.8,2471.481,13.29,0.074,136.6
2024-01-02T04:34:03,42.805,6.029,0.035,-0.043,-0.007,105.0,103.0,102.0,13.4,1505.2,1.5,-0.8,1.8,2471.493,13.29,0.055,140.9
2024-01-02T04:37:03,42.805,6.029,0.045,-0.04,0.008,106.0,104.0,101.0,13.4,1505.2,357.5,-0.8,1.8,2471.506,13.29,0.06,131.6
2024-01-02T04:40:03,42.805,6.029,0.032,-0.053,-0.017,105.0,105.0,102.0,13.4,1505.2,353.1,-0.8,1.8,2471.498,13.29,0.061,148.9
2024-01-02T04:43:03,42.805,6.029,0.04,-0.036,0.007,103.0,106.0,102.0,13.3,1505.2,342.0,-0.8,1.8,2471.494,13.29,0.053,132.0
2024-01-02T04:46:03,42.805,6.029,0.047,-0.053,0.008,105.0,104.0,103.0,13.4,1505.2,348.9,-0.7,1.8,2471.499,13.29,0.07,138.4
2024-01-02T04:49:03,42.805,6.029,0.014,-0.057,-0.015,104.0,104.0,102.0,13.3,1505.2,3.0,-0.7,1.8,2471.501,13.29,0.058,166.2
2024-01-02T04:52:03,42.805,6.029,0.05,-0.036,-0.027,104.0,105.0,102.0,13.4,1505.2,340.8,-0.7,1.8,2471.498,13.29,0.061,125.8
2024-01-02T04:55:03,42.805,6.029,0.043,-0.053,-0.025,104.0,104.0,103.0,13.4,1505.2,349.6,-0.8,1.8,2471.51,13.29,0.068,140.9
2024-01-02T04:58:03,42.805,6.029,0.043,-0.051,-0.002,104.0,105.0,103.0,13.4,1505.2,3.0,-0.7,1.8,2471.508,13.29,0.066,139.9
2024-01-02T05:04:03,42.805,6.029,0.057,-0.046,-0.014,104.0,104.0,102.0,13.3,1505.2,341.1,-0.8,1.8,2471.551,13.28,0.073,128.9
2024-01-02T05:07:03,42.805,6.029,0.041,-0.075,-0.032,104.0,104.0,103.0,13.4,1505.2,352.4,-0.8,1.8,2471.54,13.28,0.085,151.3
2024-01-02T05:10:03,42.805,6.029,0.051,-0.081,0.007,105.0,104.0,102.0,13.4,1505.2,1.5,-0.8,1.8,2471.551,13.29,0.095,147.8
2024-01-02T05:13:03,42.805,6.029,0.047,-0.057,-0.009,105.0,104.0,102.0,13.4,1505.2,348.6,-0.8,1.8,2471.545,13.29,0.073,140.5
2024-01-02T05:16:03,42.805,6.029,0.038,-0.024,-0.019,105.0,105.0,102.0,13.4,1505.2,347.0,-0.8,1.8,2471.551,13.29,0.044,122.3
2024-01-02T05:19:03,42.805,6.029,0.05,-0.06,-0.003,105.0,104.0,103.0,13.4,1505.2,355.1,-0.7,1.8,2471.51,13.29,0.078,140.2
2024-01-02T05:22:03,42.805,6.029,0.045,-0.05,-0.005,106.0,104.0,102.0,13.4,1505.2,348.5,-0.8,1.8,2471.508,13.29,0.067,138.0
2024-01-02T05:25:03,42.805,6.029,0.047,-0.075,-0.033,105.0,105.0,103.0,13.4,1505.2,4.5,-0.8,1.8,2471.464,13.29,0.088,147.9
2024-01-02T05:28:03,42.805,6.029,0.026,-0.033,-0.02,106.0,104.0,103.0,13.4,1505.2,349.1,-0.8,1.8,2471.51,13.29,0.042,141.8
2024-01-02T05:31:03,42.805,6.029,0.057,-0.063,-0.007,105.0,106.0,102.0,13.3,1505.2,356.7,-0.7,1.8,2471.449,13.29,0.084,137.9
2024-01-02T05:34:03,42.805,6.029,0.055,-0.078,-0.009,106.0,105.0,102.0,13.4,1505.2,347.1,-0.8,1.8,2471.483,13.29,0.095,144.8
2024-01-02T05:37:03,42.805,6.029,0.051,-0.076,-0.007,104.0,104.0,102.0,13.4,1505.2,353.5,-0.8,1.8,2471.506,13.29,0.091,146.1
2024-01-02T05:40:03,42.805,6.029,0.031,-0.06,-0.016,105.0,104.0,103.0,13.4,1505.2,2.2,-0.8,1.8,2471.518,13.29,0.067,152.7
2024-01-02T05:43:03,42.805,6.029,0.033,-0.065,0.01,105.0,104.0,103.0,13.3,1505.2,357.5,-0.7,1.8,2471.5,13.29,0.072,153.1
2024-01-02T05:46:03,42.805,6.029,0.049,-0.054,0.0,104.0,106.0,103.0,13.4,1505.2,2.4,-0.8,1.8,2471.532,13.29,0.072,137.8
2024-01-02T05:49:03,42.805,6.029,0.053,-0.056,-0.011,104.0,104.0,103.0,13.4,1505.2,341.5,-0.8,1.8,2471.484,13.29,0.077,136.6
2024-01-02T05:52:03,42.805,6.029,0.029,-0.078,-0.035,103.0,104.0,104.0,13.4,1505.2,342.9,-0.8,1.8,2471.472,13.29,0.083,159.6
2024-01-02T05:55:03,42.805,6.029,0.02,-0.056,-0.035,104.0,105.0,102.0,13.3,1505.2,349.9,-0.8,1.8,2471.504,13.29,0.059,160.4
2024-01-02T05:58:03,42.805,6.029,0.027,-0.042,-0.029,104.0,105.0,103.0,13.4,1505.2,0.0,-0.7,1.8,2471.483,13.29,0.049,147.3
2024-01-02T06:04:03,42.805,6.029,0.035,-0.048,0.01,105.0,104.0,104.0,13.3,1505.2,349.7,-0.8,1.8,2471.528,13.28,0.059,143.9
2024-01-02T06:07:03,42.805,6.029,0.034,-0.07,0.009,106.0,104.0,103.0,13.4,1505.2,359.1,-0.8,1.8,2471.54,13.28,0.077,154.1
2024-01-02T06:10:03,42.805,6.029,0.031,-0.066,-0.041,105.0,104.0,102.0,13.3,1505.2,4.4,-0.8,1.8,2471.523,13.28,0.072,154.8
2024-01-02T06:13:03,42.805,6.029,0.025,-0.058,-0.004,105.0,105.0,103.0,13.3,1505.2,348.5,-0.8,1.8,2471.54,13.29,0.063,156.7
2024-01-02T06:16:03,42.805,6.029,0.041,-0.051,-0.025,105.0,105.0,103.0,13.3,1505.2,346.3,-0.8,1.8,2471.546,13.29,0.065,141.2
2024-01-02T06:19:03,42.805,6.029,0.042,-0.065,0.003,104.0,106.0,104.0,13.4,1505.2,2.1,-0.8,1.8,2471.575,13.29,0.077,147.1
2024-01-02T06:22:03,42.805,6.029,0.061,-0.062,0.002,106.0,105.0,102.0,13.4,1505.2,344.4,-0.8,1.8,2471.558,13.29,0.086,135.5
2024-01-02T06:25:03,42.805,6.029,0.036,-0.075,-0.004,106.0,104.0,103.0,13.3,1505.2,347.7,-0.8,1.8,2471.533,13.29,0.083,154.4
2024-01-02T06:28:03,42.805,6.029,0.031,-0.07,-0.01,106.0,105.0,102.0,13.3,1505.2,356.3,-0.8,1.8,2471.485,13.29,0.076,156.1
2024-01-02T06:31:03,42.805,6.029,0.045,-0.06,-0.011,105.0,104.0,103.0,13.3,1505.2,342.7,-0.8,1.8,2471.506,13.29,0.074,143.1
2024-01-02T06:34:03,42.805,6.029,0.025,-0.072,-0.011,104.0,105.0,102.0,13.3,1505.2,356.7,-0.7,1.8,2471.514,13.29,0.076,160.9
2024-01-02T06:37:03,42.805,6.029,0.041,-0.068,0.0,105.0,104.0,102.0,13.4,1505.2,353.3,-0.8,1.8,2471.52,13.29,0.079,148.9
2024-01-02T06:40:03,42.805,6.029,0.006,-0.057,-0.019,106.0,104.0,103.0,13.4,1505.2,0.7,-0.8,1.8,2471.507,13.29,0.057,174.0
2024-01-02T06:43:03,42.805,6.029,0.025,-0.057,-0.046,105.0,105.0,102.0,13.3,1505.2,354.2,-0.8,1.8,2471.544,13.29,0.062,156.3
2024-01-02T06:46:03,42.805,6.029,0.028,-0.052,-0.025,105.0,105.0,102.0,13.4,1505.2,349.6,-0.8,1.8,2471.565,13.29,0.059,151.7
2024-01-02T06:49:03,42.805,6.029,0.016,-0.049,-0.039,106.0,105.0,103.0,13.3,1505.2,3.2,-0.7,1.9,2471.483,13.29,0.051,161.9
2024-01-02T06:52:03,42.805,6.029,0.045,-0.058,-0.011,105.0,105.0,102.0,13.3,1505.2,347.5,-0.8,1.8,2471.511,13.29,0.073,142.2
2024-01-02T06:55:03,42.805,6.029,0.027,-0.051,-0.031,106.0,105.0,102.0,13.4,1505.2,348.9,-0.8,1.8,2471.543,13.29,0.057,152.1
2024-01-02T06:58:03,42.805,6.029,0.024,-0.061,-0.009,105.0,104.0,103.0,13.4,1505.2,3.0,-0.7,1.8,2471.5,13.29,0.065,158.5
2024-01-02T07:04:03,42.805,6.029,0.032,-0.069,-0.009,105.0,105.0,103.0,13.4,1505.2,356.0,-0.8,1.8,2471.612,13.28,0.076,155.1
2024-01-02T07:07:03,42.805,6.029,0.023,-0.054,-0.041,105.0,105.0,102.0,13.3,1505.2,355.9,-0.8,1.8,2471.581,13.28,0.058,156.9
2024-01-02T07:10:03,42.805,6.029,0.026,-0.059,0.0,105.0,104.0,103.0,13.4,1505.2,355.6,-0.7,1.8,2471.59,13.28,0.064,156.2
2024-01-02T07:13:03,42.805,6.029,0.033,-0.036,-0.024,105.0,105.0,103.0,13.4,1505.2,343.5,-0.8,1.8,2471.564,13.29,0.048,137.5
2024-01-02T07:16:03,42.805,6.029,0.022,-0.049,-0.041,107.0,106.0,102.0,13.3,1505.2,349.3,-0.8,1.8,2471.601,13.29,0.053,155.8
2024-01-02T07:19:03,42.805,6.029,0.002,-0.051,0.01,105.0,105.0,103.0,13.4,1505.2,350.0,-0.8,1.8,2471.573,13.29,0.051,177.8
2024-01-02T07:22:03,42.805,6.029,0.012,-0.066,0.002,106.0,106.0,103.0,13.4,1505.2,356.9,-0.7,1.8,2471.573,13.29,0.067,169.7
2024-01-02T07:25:03,42.805,6.029,0.023,-0.051,-0.008,105.0,106.0,103.0,13.4,1505.2,355.9,-0.8,1.8,2471.543,13.29,0.055,155.7
2024-01-02T07:28:03,42.805,6.029,0.01,-0.069,-0.007,106.0,105.0,102.0,13.3,1505.2,350.3,-0.8,1.8,2471.551,13.29,0.069,171.8
2024-01-02T07:31:03,42.805,6.029,0.025,-0.06,-0.021,105.0,105.0,104.0,13.3,1505.2,354.5,-0.7,1.8,2471.586,13.29,0.064,157.4
2024-01-02T07:34:03,42.805,6.029,0.007,-0.043,-0.014,105.0,105.0,103.0,13.4,1505.2,3.9,-0.8,1.8,2471.553,13.29,0.043,170.8
2024-01-02T07:37:03,42.805,6.029,0.016,-0.022,-0.008,107.0,105.0,103.0,13.4,1505.2,343.9,-0.8,1.8,2471.58,13.29,0.027,144.0
2024-01-02T07:40:03,42.805,6.029,0.035,-0.068,-0.008,107.0,105.0,103.0,13.4,1505.2,348.2,-0.8,1.8,2471.561,13.29,0.076,152.8
2024-01-02T07:43:03,42.805,6.029,0.018,-0.062,-0.003,105.0,105.0,103.0,13.3,1505.2,2.3,-0.7,1.8,2471.588,13.29,0.064,163.8
2024-01-02T07:46:03,42.805,6.029,0.013,-0.036,-0.05,105.0,106.0,104.0,13.4,1505.2,345.9,-0.8,1.8,2471.577,13.29,0.038,160.1
2024-01-02T07:49:03,42.805,6.029,0.022,-0.047,-0.01,106.0,105.0,103.0,13.4,1505.2,348.2,-0.8,1.8,2471.568,13.29,0.051,154.9
2024-01-02T07:52:03,42.805,6.029,0.024,-0.068,-0.001,106.0,104.0,102.0,13.4,1505.2,1.6,-0.7,1.8,2471.553,13.29,0.072,160.6
2024-01-02T07:55:03,42.805,6.029,0.046,-0.068,-0.048,106.0,105.0,104.0,13.4,1505.2,346.5,-0.8,1.8,2471.539,13.29,0.082,145.9
2024-01-02T07:58:03,42.805,6.029,0.026,-0.048,-0.008,105.0,105.0,103.0,13.4,1505.2,346.3,-0.8,1.8,2471.57,13.29,0.054,151.6
2024-01-02T08:04:03,42.805,6.029,0.028,-0.044,0.009,105.0,104.0,104.0,13.4,1505.2,356.9,-0.8,1.8,2471.618,13.28,0.052,147.5
2024-01-02T08:07:03,42.805,6.029,0.032,-0.03,-0.001,106.0,104.0,103.0,13.4,1505.2,351.1,-0.8,1.8,2471.648,13.28,0.043,133.1
2024-01-02T08:10:03,42.805,6.029,0.015,-0.05,-0.035,105.0,105.0,103.0,13.3,1505.2,0.0,-0.8,1.8,2471.642,13.29,0.052,163.3
2024-01-02T08:13:03,42.805,6.029,0.01,-0.051,-0.022,105.0,105.0,103.0,13.4,1505.2,349.3,-0.8,1.8,2471.644,13.29,0.051,168.9
2024-01-02T08:16:03,42.805,6.029,0.028,-0.065,-0.007,106.0,104.0,103.0,13.3,1505.2,355.1,-0.8,1.8,2471.603,13.29,0.07,156.7
2024-01-02T08:19:03,42.805,6.029,0.007,-0.042,-0.048,106.0,105.0,104.0,13.4,1505.2,351.7,-0.8,1.8,2471.613,13.29,0.042,170.5
2024-01-02T08:22:03,42.805,6.029,0.002,-0.064,-0.017,105.0,105.0,102.0,13.4,1505.2,4.5,-0.8,1.8,2471.609,13.29,0.064,178.2
2024-01-02T08:25:03,42.805,6.029,0.03,-0.017,-0.008,105.0,105.0,103.0,13.3,1505.2,342.0,-0.8,1.8,2471.632,13.29,0.034,119.5
2024-01-02T08:28:03,42.805,6.029,0.015,-0.052,-0.014,104.0,105.0,104.0,13.4,1505.2,357.5,-0.7,1.8,2471.604,13.29,0.054,163.9
2024-01-02T08:31:03,42.805,6.029,0.011,-0.055,-0.033,107.0,104.0,103.0,13.3,1505.2,4.3,-0.7,1.8,2471.61,13.29,0.056,168.7
2024-01-02T08:34:03,42.805,6.029,0.028,-0.041,0.026,106.0,105.0,103.0,13.4,1505.2,340.1,-0.8,1.9,2471.601,13.29,0.049,145.7
2024-01-02T08:37:03,42.805,6.029,0.004,-0.049,-0.015,107.0,105.0,103.0,13.4,1505.2,355.8,-0.8,1.9,2471.578,13.29,0.049,175.3
2024-01-02T08:40:03,42.805,6.029,0.03,-0.053,-0.036,106.0,105.0,103.0,13.3,1505.2,1.6,-0.8,1.8,2471.627,13.29,0.06,150.5
2024-01-02T08:43:03,42.805,6.029,0.034,-0.051,-0.029,106.0,104.0,102.0,13.3,1505.2,350.5,-0.7,1.8,2471.609,13.29,0.061,146.3
2024-01-02T08:46:03,42.805,6.029,0.038,-0.057,-0.017,105.0,105.0,103.0,13.3,1505.2,353.2,-0.8,1.8,2471.683,13.29,0.068,146.3
2024-01-02T08:49:03,42.805,6.029,0.047,-0.04,0.018,105.0,104.0,103.0,13.4,1505.2,349.9,-0.8,1.8,2471.628,13.29,0.061,130.4
2024-01-02T08:52:03,42.805,6.029,0.021,-0.073,-0.017,105.0,105.0,103.0,13.4,1505.2,3.1,-0.8,1.8,2471.585,13.29,0.075,164.0
2024-01-02T08:55:03,42.805,6.029,0.019,-0.037,-0.044,105.0,105.0,102.0,13.4,1505.2,350.6,-0.8,1.8,2471.621,13.29,0.041,152.8
2024-01-02T08:58:03,42.805,6.029,0.025,-0.045,-0.045,105.0,105.0,103.0,13.3,1505.2,343.0,-0.8,1.8,2471.668,13.29,0.051,150.9
2024-01-02T09:04:03,42.805,6.029,0.052,-0.066,-0.03,106.0,105.0,103.0,13.4,1505.2,350.8,-0.7,1.8,2471.698,13.28,0.084,141.8
2024-01-02T09:07:03,42.805,6.029,-0.009,-0.047,0.0,106.0,103.0,103.0,13.3,1505.2,357.1,-0.8,1.8,2471.657,13.28,0.047,190.8
2024-01-02T09:10:03,42.805,6.029,0.035,-0.066,-0.009,106.0,105.0,103.0,13.4,1505.2,346.5,-0.7,1.8,2471.689,13.29,0.074,152.1
2024-01-02T09:13:03,42.805,6.029,0.027,-0.064,-0.044,106.0,105.0,103.0,13.3,1505.2,351.3,-0.8,1.8,2471.653,13.29,0.069,157.1
2024-01-02T09:16:03,42.805,6.029,0.048,-0.053,-0.023,106.0,104.0,103.0,13.4,1505.2,342.8,-0.8,1.8,2471.667,13.29,0.071,137.8
2024-01-02T09:19:03,42.805,6.029,0.036,-0.052,0.0,105.0,105.0,102.0,13.4,1505.2,358.3,-0.7,1.8,2471.682,13.29,0.063,145.3
2024-01-02T09:22:03,42.805,6.029,0.021,-0.042,-0.044,107.0,104.0,103.0,13.4,1505.2,0.0,-0.7,1.8,2471.661,13.29,0.046,153.4
2024-01-02T09:25:03,42.805,6.029,0.022,-0.064,-0.031,106.0,106.0,103.0,13.4,1505.2,350.8,-0.7,1.8,2471.702,13.29,0.067,161.0
2024-01-02T09:28:03,42.805,6.029,0.013,-0.047,-0.033,105.0,105.0,103.0,13.3,1505.2,358.3,-0.8,1.8,2471.666,13.29,0.048,164.5
2024-01-02T09:31:03,42.805,6.029,0.018,-0.058,-0.019,107.0,105.0,102.0,13.4,1505.2,352.0,-0.8,1.8,2471.641,13.29,0.06,162.8
2024-01-02T09:34:03,42.805,6.029,0.036,-0.041,-0.031,105.0,105.0,103.0,13.4,1505.2,351.0,-0.7,1.8,2471.665,13.29,0.054,138.7
2024-01-02T09:37:03,42.805,6.029,0.037,-0.051,-0.023,106.0,105.0,103.0,13.3,1505.2,350.9,-0.8,1.8,2471.679,13.29,0.063,144.0
2024-01-02T09:40:03,42.805,6.029,0.033,-0.063,-0.019,105.0,105.0,104.0,13.4,1505.2,346.7,-0.8,1.8,2471.686,13.29,0.071,152.4
2024-01-02T09:43:03,42.805,6.029,0.015,-0.064,-0.003,105.0,105.0,103.0,13.3,1505.2,0.8,-0.8,1.8,2471.669,13.29,0.065,166.8
2024-01-02T09:46:03,42.805,6.029,0.022,-0.046,-0.031,105.0,105.0,104.0,13.4,1505.2,342.5,-0.8,1.8,2471.69,13.29,0.05,154.4
2024-01-02T09:49:03,42.805,6.029,0.023,-0.069,-0.025,106.0,105.0,103.0,13.3,1505.2,356.9,-0.8,1.8,2471.705,13.29,0.072,161.6
2024-01-02T09:52:03,42.805,6.029,0.014,-0.032,-0.019,106.0,105.0,103.0,13.4,1505.2,355.0,-0.8,1.8,2471.679,13.29,0.034,156.4
2024-01-02T09:55:03,42.805,6.029,0.033,-0.048,-0.014,105.0,106.0,103.0,13.4,1505.2,348.9,-0.7,1.8,2471.7,13.29,0.058,145.5